CCA986 KSFO-ZBAA

Flight info

Callsign CCA986
Flight time N/A
Altitude 30000
Route GNNRR3 AMAKR DCT REDWD DCT 41N130W 46N140W/N0497F320 50N150W 53N160W DCT DUT/N0489F340 DCT DRAPP DCT ONEIL DCT HEDMI M523 IGPAK/N0483F360 M523 IPGUD Y800 MUBTO Y889 DAIGO Y88 TEPEX Y16 SAPRA Y685 KPO/N0483F380 Y685 SEL Y697 AGAVO/K0895S1160 A591 IKEKA W4 HCH W200 DOVIV W55 DUMAP DUMAP9Z
Aircraft B77W/H-SDE1E2E3FGHIJ2J3J4J5M1RWXY/LB1D1

Departure

Time 2026-05-06 07:55
Airport San Francisco International Airport (KSFO)

Arrival

Time N/A
Airport Beijing Capital International Airport (ZBAA)
Time Latitude Longitude Altitude Speed Heading
2026-05-06 07:17 37.61180 -122.38640 27 ft 0 kts 117°
2026-05-06 07:38 37.61183 -122.38649 27 ft 4 kts 117°
2026-05-06 07:38 37.61196 -122.38679 26 ft 4 kts 117°
2026-05-06 07:38 37.61207 -122.38705 25 ft 4 kts 120°
2026-05-06 07:38 37.61223 -122.38723 25 ft 4 kts 188°
2026-05-06 07:39 37.61246 -122.38710 26 ft 4 kts 213°
2026-05-06 07:39 37.61265 -122.38695 26 ft 0 kts 207°
2026-05-06 07:43 37.61251 -122.38703 25 ft 4 kts 202°
2026-05-06 07:43 37.61215 -122.38715 26 ft 7 kts 191°
2026-05-06 07:43 37.61162 -122.38742 27 ft 10 kts 207°
2026-05-06 07:43 37.61092 -122.38788 27 ft 13 kts 207°
2026-05-06 07:44 37.61007 -122.38844 27 ft 14 kts 207°
2026-05-06 07:44 37.60919 -122.38835 27 ft 14 kts 134°
2026-05-06 07:44 37.60869 -122.38729 27 ft 14 kts 117°
2026-05-06 07:44 37.60823 -122.38620 27 ft 14 kts 118°
2026-05-06 07:45 37.60770 -122.38518 27 ft 14 kts 143°
2026-05-06 07:45 37.60679 -122.38476 27 ft 14 kts 145°
2026-05-06 07:45 37.60612 -122.38386 27 ft 14 kts 130°
2026-05-06 07:45 37.60549 -122.38292 27 ft 14 kts 130°
2026-05-06 07:46 37.60503 -122.38184 27 ft 14 kts 99°
2026-05-06 07:46 37.60512 -122.38058 27 ft 15 kts 81°
2026-05-06 07:46 37.60571 -122.37953 27 ft 16 kts 31°
2026-05-06 07:46 37.60669 -122.37886 27 ft 16 kts 27°
2026-05-06 07:47 37.60773 -122.37818 27 ft 17 kts 27°
2026-05-06 07:47 37.60882 -122.37746 27 ft 18 kts 28°
2026-05-06 07:47 37.60995 -122.37671 27 ft 19 kts 28°
2026-05-06 07:47 37.61112 -122.37594 27 ft 19 kts 27°
2026-05-06 07:48 37.61233 -122.37514 27 ft 20 kts 27°
2026-05-06 07:48 37.61355 -122.37433 27 ft 20 kts 27°
2026-05-06 07:48 37.61477 -122.37352 27 ft 20 kts 28°
2026-05-06 07:48 37.61558 -122.37218 27 ft 20 kts 77°
2026-05-06 07:49 37.61529 -122.37051 27 ft 20 kts 116°
2026-05-06 07:49 37.61454 -122.36906 27 ft 20 kts 129°
2026-05-06 07:49 37.61364 -122.36774 27 ft 20 kts 124°
2026-05-06 07:49 37.61299 -122.36622 26 ft 20 kts 117°
2026-05-06 07:50 37.61234 -122.36468 27 ft 20 kts 118°
2026-05-06 07:50 37.61170 -122.36316 26 ft 18 kts 118°
2026-05-06 07:50 37.61134 -122.36232 27 ft 9 kts 118°
2026-05-06 07:50 37.61105 -122.36162 27 ft 9 kts 117°
2026-05-06 07:51 37.61076 -122.36093 27 ft 9 kts 118°
2026-05-06 07:51 37.61054 -122.36032 26 ft 0 kts 104°
2026-05-06 07:53 37.61052 -122.36004 25 ft 8 kts 90°
2026-05-06 07:53 37.61088 -122.35917 27 ft 12 kts 38°
2026-05-06 07:53 37.61157 -122.35864 27 ft 12 kts 29°
2026-05-06 07:54 37.61228 -122.35817 27 ft 12 kts 27°
2026-05-06 07:54 37.61300 -122.35770 27 ft 12 kts 27°
2026-05-06 07:54 37.61372 -122.35775 27 ft 12 kts 315°
2026-05-06 07:54 37.61469 -122.35996 27 ft 61 kts 298°
2026-05-06 07:55 37.61779 -122.36735 27 ft 128 kts 297°
2026-05-06 07:55 37.62287 -122.37952 28 ft 182 kts 298°
2026-05-06 07:55 37.62937 -122.39387 483 ft 180 kts 302°
2026-05-06 07:55 37.63570 -122.40697 1202 ft 179 kts 299°
2026-05-06 07:56 37.64150 -122.42163 1513 ft 189 kts 296°
2026-05-06 07:56 37.64722 -122.43641 2093 ft 187 kts 297°
2026-05-06 07:56 37.65316 -122.45118 2400 ft 199 kts 298°
2026-05-06 07:56 37.65991 -122.46754 2642 ft 214 kts 299°
2026-05-06 07:57 37.66702 -122.48456 3116 ft 223 kts 300°
2026-05-06 07:57 37.67463 -122.50266 3465 ft 241 kts 300°
2026-05-06 07:57 37.68378 -122.52057 3962 ft 251 kts 308°
2026-05-06 07:57 37.69461 -122.53866 4576 ft 258 kts 309°
2026-05-06 07:58 37.70547 -122.55653 5293 ft 262 kts 309°
2026-05-06 07:58 37.71655 -122.57489 6077 ft 263 kts 309°
2026-05-06 07:58 37.72763 -122.59341 6782 ft 265 kts 309°
2026-05-06 07:58 37.73890 -122.61238 7455 ft 268 kts 310°
2026-05-06 07:59 37.74994 -122.63104 8079 ft 271 kts 310°
2026-05-06 07:59 37.76125 -122.65021 8752 ft 273 kts 311°
2026-05-06 07:59 37.77266 -122.66959 9398 ft 277 kts 311°
2026-05-06 07:59 37.78424 -122.68929 10073 ft 280 kts 311°
2026-05-06 08:00 37.79589 -122.70916 10675 ft 282 kts 311°
2026-05-06 08:00 37.80761 -122.72915 11312 ft 284 kts 311°
2026-05-06 08:00 37.81957 -122.74944 11738 ft 294 kts 313°
2026-05-06 08:00 37.83452 -122.76759 11831 ft 304 kts 329°
2026-05-06 08:01 37.85285 -122.78244 12004 ft 323 kts 331°
2026-05-06 08:01 37.86594 -122.79289 12125 ft 337 kts 330°
2026-05-06 08:01 37.88604 -122.80905 12374 ft 354 kts 330°
2026-05-06 08:01 37.90709 -122.82615 12914 ft 364 kts 330°
2026-05-06 08:02 37.92849 -122.84369 13619 ft 369 kts 330°
2026-05-06 08:02 37.95006 -122.86148 14324 ft 371 kts 329°
2026-05-06 08:02 37.97179 -122.87948 14983 ft 375 kts 329°
2026-05-06 08:02 37.99376 -122.89772 15605 ft 380 kts 329°
2026-05-06 08:03 38.01598 -122.91620 16230 ft 384 kts 329°
2026-05-06 08:03 38.03846 -122.93493 16854 ft 389 kts 329°
2026-05-06 08:03 38.06118 -122.95388 17486 ft 393 kts 329°
2026-05-06 08:03 38.08419 -122.97309 18059 ft 399 kts 329°
2026-05-06 08:04 38.10752 -122.99257 18596 ft 404 kts 329°
2026-05-06 08:04 38.13104 -123.01224 19142 ft 407 kts 330°
2026-05-06 08:04 38.15479 -123.03212 19701 ft 410 kts 330°
2026-05-06 08:04 38.17871 -123.05216 20253 ft 413 kts 330°
2026-05-06 08:05 38.20281 -123.07236 20786 ft 417 kts 330°
2026-05-06 08:05 38.22715 -123.09277 21304 ft 421 kts 330°
2026-05-06 08:05 38.25170 -123.11337 21798 ft 425 kts 330°
2026-05-06 08:05 38.27649 -123.13420 22283 ft 429 kts 330°
2026-05-06 08:06 38.30148 -123.15521 22792 ft 432 kts 330°
2026-05-06 08:06 38.32663 -123.17637 23285 ft 436 kts 330°
2026-05-06 08:06 38.35202 -123.19775 23749 ft 439 kts 330°
2026-05-06 08:06 38.37760 -123.21932 24161 ft 443 kts 331°
2026-05-06 08:07 38.40339 -123.24108 24503 ft 447 kts 331°
2026-05-06 08:07 38.42945 -123.26308 24853 ft 451 kts 332°
2026-05-06 08:07 38.45569 -123.28526 25265 ft 454 kts 332°
2026-05-06 08:07 38.48209 -123.30760 25664 ft 457 kts 332°
2026-05-06 08:08 38.50865 -123.33009 26040 ft 460 kts 332°
2026-05-06 08:08 38.53532 -123.35269 26405 ft 463 kts 332°
2026-05-06 08:08 38.56223 -123.37551 26759 ft 466 kts 332°
2026-05-06 08:08 38.58931 -123.39851 27107 ft 469 kts 332°
2026-05-06 08:09 38.61657 -123.42167 27462 ft 472 kts 332°
2026-05-06 08:09 38.64397 -123.44498 27793 ft 474 kts 332°
2026-05-06 08:09 38.67116 -123.46814 28132 ft 477 kts 333°
2026-05-06 08:09 38.69924 -123.49207 28450 ft 480 kts 333°
2026-05-06 08:10 38.72707 -123.51582 28777 ft 482 kts 333°
2026-05-06 08:10 38.75465 -123.53938 29064 ft 484 kts 333°
2026-05-06 08:10 38.78275 -123.56339 29351 ft 487 kts 333°
2026-05-06 08:10 38.81098 -123.58756 29619 ft 489 kts 333°
2026-05-06 08:11 38.83973 -123.61218 29864 ft 491 kts 333°
2026-05-06 08:11 38.86780 -123.63625 30011 ft 495 kts 333°
2026-05-06 08:11 38.92514 -123.68553 30395 ft 495 kts 333°
2026-05-06 08:12 38.95363 -123.71005 30809 ft 491 kts 333°
2026-05-06 08:12 38.98171 -123.73465 31240 ft 487 kts 329°
2026-05-06 08:12 39.00632 -123.76533 31476 ft 502 kts 311°
2026-05-06 08:12 39.02347 -123.80479 31800 ft 508 kts 300°
2026-05-06 08:13 39.03808 -123.84625 31979 ft 509 kts 300°
2026-05-06 08:13 39.05299 -123.88770 32044 ft 511 kts 301°
2026-05-06 08:13 39.08351 -123.97020 32068 ft 510 kts 301°
2026-05-06 08:14 39.11440 -124.05215 32077 ft 508 kts 301°
2026-05-06 08:14 39.14523 -124.13381 32084 ft 506 kts 301°
2026-05-06 08:15 39.17593 -124.21541 32086 ft 506 kts 301°
2026-05-06 08:15 39.20648 -124.29698 32070 ft 505 kts 301°
2026-05-06 08:16 39.23698 -124.37868 32083 ft 505 kts 301°
2026-05-06 08:16 39.26743 -124.46045 32081 ft 506 kts 301°
2026-05-06 08:17 39.29783 -124.54232 32099 ft 506 kts 301°
2026-05-06 08:17 39.32797 -124.62370 32076 ft 506 kts 301°
2026-05-06 08:18 39.35831 -124.70586 32092 ft 507 kts 301°
2026-05-06 08:18 39.38862 -124.78816 32099 ft 507 kts 300°
2026-05-06 08:19 39.41887 -124.87055 32095 ft 507 kts 300°
2026-05-06 08:19 39.44904 -124.95294 32096 ft 507 kts 300°
2026-05-06 08:20 39.47919 -125.03548 32100 ft 507 kts 300°
2026-05-06 08:20 39.50925 -125.11803 32090 ft 506 kts 300°
2026-05-06 08:21 39.53919 -125.20050 32093 ft 505 kts 300°
2026-05-06 08:21 39.56901 -125.28283 32101 ft 505 kts 300°
2026-05-06 08:22 39.59877 -125.36524 32094 ft 504 kts 299°
2026-05-06 08:22 39.62843 -125.44760 32097 ft 504 kts 299°
2026-05-06 08:23 39.65801 -125.52998 32108 ft 504 kts 299°
2026-05-06 08:23 39.68755 -125.61247 32097 ft 504 kts 299°
2026-05-06 08:24 39.71682 -125.69446 32111 ft 504 kts 299°
2026-05-06 08:24 39.74620 -125.77697 32112 ft 504 kts 299°
2026-05-06 08:25 39.77556 -125.85966 32110 ft 504 kts 298°
2026-05-06 08:25 39.80485 -125.94242 32112 ft 503 kts 298°
2026-05-06 08:26 39.83404 -126.02512 32118 ft 503 kts 298°
2026-05-06 08:26 39.86320 -126.10796 32117 ft 503 kts 298°
2026-05-06 08:27 39.89229 -126.19084 32108 ft 503 kts 298°
2026-05-06 08:27 39.92129 -126.27371 32113 ft 502 kts 298°
2026-05-06 08:28 39.95020 -126.35660 32118 ft 502 kts 298°
2026-05-06 08:28 39.97905 -126.43954 32110 ft 502 kts 297°
2026-05-06 08:29 40.00768 -126.52253 32117 ft 503 kts 296°
2026-05-06 08:29 40.03390 -126.60720 32126 ft 504 kts 294°
2026-05-06 08:30 40.05908 -126.69254 32128 ft 504 kts 294°
2026-05-06 08:30 40.08445 -126.77778 32120 ft 503 kts 294°
2026-05-06 08:31 40.10999 -126.86276 32131 ft 503 kts 294°
2026-05-06 08:31 40.13559 -126.94779 32130 ft 503 kts 294°
2026-05-06 08:32 40.16112 -127.03286 32117 ft 502 kts 294°
2026-05-06 08:32 40.18654 -127.11793 32139 ft 502 kts 294°
2026-05-06 08:33 40.21188 -127.20305 32142 ft 502 kts 294°
2026-05-06 08:33 40.23713 -127.28811 32124 ft 502 kts 294°
2026-05-06 08:34 40.27475 -127.41539 32141 ft 502 kts 294°
2026-05-06 08:35 40.29987 -127.50071 32129 ft 502 kts 294°
2026-05-06 08:35 40.32491 -127.58600 32128 ft 502 kts 294°
2026-05-06 08:36 40.34991 -127.67144 32145 ft 502 kts 293°
2026-05-06 08:36 40.37483 -127.75691 32138 ft 502 kts 293°
2026-05-06 08:37 40.39969 -127.84246 32139 ft 502 kts 293°
2026-05-06 08:37 40.42446 -127.92798 32138 ft 502 kts 292°
2026-05-06 08:38 40.44919 -128.01363 32140 ft 501 kts 292°
2026-05-06 08:38 40.47384 -128.09929 32144 ft 501 kts 292°
2026-05-06 08:39 40.49841 -128.18498 32145 ft 501 kts 292°
2026-05-06 08:39 40.52292 -128.27069 32143 ft 501 kts 292°
2026-05-06 08:40 40.54731 -128.35631 32149 ft 500 kts 292°
2026-05-06 08:40 40.57167 -128.44206 32150 ft 500 kts 292°
2026-05-06 08:41 40.59579 -128.52730 32141 ft 500 kts 292°
2026-05-06 08:41 40.62016 -128.61369 32151 ft 500 kts 292°
2026-05-06 08:42 40.64411 -128.69887 32154 ft 500 kts 292°
2026-05-06 08:42 40.66818 -128.78476 32155 ft 500 kts 292°
2026-05-06 08:43 40.69218 -128.87069 32151 ft 500 kts 291°
2026-05-06 08:43 40.71608 -128.95658 32159 ft 500 kts 291°
2026-05-06 08:44 40.73996 -129.04265 32156 ft 500 kts 291°
2026-05-06 08:44 40.76378 -129.12881 32151 ft 500 kts 291°
2026-05-06 08:45 40.78754 -129.21506 32160 ft 500 kts 291°
2026-05-06 08:45 40.81124 -129.30139 32159 ft 500 kts 291°
2026-05-06 08:46 40.83484 -129.38767 32164 ft 500 kts 291°
2026-05-06 08:46 40.85842 -129.47412 32157 ft 500 kts 290°
2026-05-06 08:47 40.88195 -129.56071 32163 ft 501 kts 291°
2026-05-06 08:47 40.90544 -129.64751 32178 ft 502 kts 290°
2026-05-06 08:48 40.92888 -129.73436 32162 ft 503 kts 290°
2026-05-06 08:48 40.95215 -129.82098 32172 ft 503 kts 290°
2026-05-06 08:49 40.97555 -129.90826 32168 ft 504 kts 290°
2026-05-06 08:49 41.00247 -129.99370 32181 ft 502 kts 299°
2026-05-06 08:50 41.04032 -130.07105 32172 ft 500 kts 308°
2026-05-06 08:50 41.08338 -130.14346 32178 ft 500 kts 309°
2026-05-06 08:51 41.12640 -130.21580 32176 ft 499 kts 309°
2026-05-06 08:51 41.16185 -130.27611 32186 ft 499 kts 308°
2026-05-06 08:52 41.20433 -130.34894 32184 ft 499 kts 308°
2026-05-06 08:52 41.24669 -130.42188 32179 ft 499 kts 308°
2026-05-06 08:53 41.28903 -130.49494 32186 ft 499 kts 308°
2026-05-06 08:53 41.33138 -130.56815 32188 ft 499 kts 308°
2026-05-06 08:54 41.37365 -130.64140 32182 ft 500 kts 308°
2026-05-06 08:54 41.41596 -130.71488 32186 ft 500 kts 307°
2026-05-06 08:55 41.45825 -130.78850 32187 ft 500 kts 307°
2026-05-06 08:55 41.50050 -130.86226 32183 ft 501 kts 307°
2026-05-06 08:56 41.54272 -130.93612 32187 ft 500 kts 307°
2026-05-06 08:56 41.58484 -131.00999 32196 ft 500 kts 307°
2026-05-06 08:57 41.62695 -131.08402 32189 ft 500 kts 307°
2026-05-06 08:57 41.66901 -131.15814 32194 ft 500 kts 306°
2026-05-06 08:58 41.71104 -131.23239 32202 ft 500 kts 306°
2026-05-06 08:58 41.75270 -131.30618 32196 ft 501 kts 306°
2026-05-06 08:59 41.79465 -131.38065 32195 ft 501 kts 306°
2026-05-06 08:59 41.83659 -131.45528 32208 ft 501 kts 306°
2026-05-06 09:00 41.87850 -131.53005 32203 ft 502 kts 306°
2026-05-06 09:00 41.92033 -131.60486 32209 ft 502 kts 305°
2026-05-06 09:01 41.96217 -131.67989 32214 ft 501 kts 305°
2026-05-06 09:01 42.00396 -131.75498 32212 ft 501 kts 305°
2026-05-06 09:02 42.04566 -131.83013 32210 ft 501 kts 304°
2026-05-06 09:02 42.08731 -131.90535 32211 ft 501 kts 305°
2026-05-06 09:03 42.12889 -131.98065 32213 ft 501 kts 305°
2026-05-06 09:03 42.17035 -132.05591 32215 ft 501 kts 304°
2026-05-06 09:04 42.21180 -132.13135 32223 ft 500 kts 304°
2026-05-06 09:04 42.25320 -132.20689 32221 ft 500 kts 304°
2026-05-06 09:05 42.29428 -132.28201 32225 ft 501 kts 304°
2026-05-06 09:05 42.33554 -132.35767 32224 ft 500 kts 304°
2026-05-06 09:06 42.37680 -132.43352 32226 ft 501 kts 304°
2026-05-06 09:06 42.41801 -132.50946 32224 ft 501 kts 304°
2026-05-06 09:07 42.45917 -132.58551 32234 ft 500 kts 304°
2026-05-06 09:07 42.50028 -132.66166 32231 ft 501 kts 304°
2026-05-06 09:08 42.54128 -132.73780 32229 ft 501 kts 304°
2026-05-06 09:08 42.58228 -132.81413 32239 ft 500 kts 304°
2026-05-06 09:09 42.62322 -132.89053 32235 ft 500 kts 304°
2026-05-06 09:09 42.66407 -132.96698 32238 ft 500 kts 303°
2026-05-06 09:10 42.70486 -133.04350 32244 ft 500 kts 303°
2026-05-06 09:10 42.74554 -133.12001 32242 ft 499 kts 303°
2026-05-06 09:11 42.78619 -133.19666 32248 ft 499 kts 303°
2026-05-06 09:11 42.82677 -133.27339 32251 ft 499 kts 303°
2026-05-06 09:12 42.86731 -133.35023 32252 ft 499 kts 303°
2026-05-06 09:12 42.90780 -133.42717 32256 ft 499 kts 303°
2026-05-06 09:13 42.94820 -133.50414 32262 ft 499 kts 303°
2026-05-06 09:13 42.98861 -133.58134 32260 ft 500 kts 303°
2026-05-06 09:14 43.02896 -133.65860 32266 ft 500 kts 302°
2026-05-06 09:14 43.06897 -133.73544 32276 ft 500 kts 302°
2026-05-06 09:15 43.10925 -133.81296 32261 ft 500 kts 302°
2026-05-06 09:15 43.14947 -133.89060 32267 ft 500 kts 302°
2026-05-06 09:16 43.18966 -133.96837 32272 ft 500 kts 302°
2026-05-06 09:16 43.22978 -134.04622 32275 ft 500 kts 302°
2026-05-06 09:17 43.26989 -134.12426 32278 ft 500 kts 302°
2026-05-06 09:17 43.30995 -134.20240 32277 ft 500 kts 302°
2026-05-06 09:18 43.34998 -134.28067 32283 ft 501 kts 301°
2026-05-06 09:18 43.38996 -134.35908 32282 ft 501 kts 301°
2026-05-06 09:19 43.42984 -134.43750 32288 ft 501 kts 301°
2026-05-06 09:19 43.46972 -134.51610 32299 ft 501 kts 301°
2026-05-06 09:20 43.50954 -134.59482 32291 ft 501 kts 301°
2026-05-06 09:20 43.54923 -134.67350 32298 ft 500 kts 301°
2026-05-06 09:21 43.58889 -134.75231 32309 ft 500 kts 300°
2026-05-06 09:21 43.62846 -134.83116 32299 ft 499 kts 300°
2026-05-06 09:22 43.66766 -134.90948 32303 ft 499 kts 300°
2026-05-06 09:22 43.70725 -134.98880 32303 ft 498 kts 300°
2026-05-06 09:23 43.74628 -135.06721 32320 ft 498 kts 300°
2026-05-06 09:23 43.78551 -135.14623 32307 ft 498 kts 300°
2026-05-06 09:24 43.82468 -135.22534 32305 ft 498 kts 300°
2026-05-06 09:24 43.86376 -135.30447 32316 ft 498 kts 300°
2026-05-06 09:25 43.90281 -135.38377 32312 ft 498 kts 300°
2026-05-06 09:25 43.94178 -135.46312 32316 ft 497 kts 300°
2026-05-06 09:26 43.98061 -135.54239 32330 ft 497 kts 300°
2026-05-06 09:26 44.01938 -135.62177 32322 ft 496 kts 300°
2026-05-06 09:27 44.05806 -135.70117 32321 ft 496 kts 299°
2026-05-06 09:27 44.09664 -135.78058 32346 ft 495 kts 299°
2026-05-06 09:28 44.13513 -135.86002 32332 ft 495 kts 299°
2026-05-06 09:28 44.17327 -135.93897 32324 ft 494 kts 299°
2026-05-06 09:29 44.21153 -136.01837 32332 ft 494 kts 299°
2026-05-06 09:29 44.24976 -136.09793 32337 ft 494 kts 299°
2026-05-06 09:30 44.28793 -136.17759 32329 ft 494 kts 299°
2026-05-06 09:30 44.32603 -136.25731 32337 ft 493 kts 299°
2026-05-06 09:31 44.36406 -136.33712 32353 ft 493 kts 298°
2026-05-06 09:31 44.40204 -136.41703 32343 ft 493 kts 298°
2026-05-06 09:32 44.43994 -136.49701 32340 ft 493 kts 298°
2026-05-06 09:32 44.47773 -136.57696 32345 ft 493 kts 298°
2026-05-06 09:33 44.51551 -136.65710 32355 ft 493 kts 298°
2026-05-06 09:33 44.55322 -136.73735 32347 ft 493 kts 298°
2026-05-06 09:34 44.59082 -136.81757 32347 ft 492 kts 298°
2026-05-06 09:34 44.62840 -136.89796 32367 ft 493 kts 298°
2026-05-06 09:35 44.66594 -136.97852 32363 ft 493 kts 298°
2026-05-06 09:35 44.70347 -137.05927 32358 ft 494 kts 298°
2026-05-06 09:36 44.74096 -137.14016 32386 ft 494 kts 297°
2026-05-06 09:36 44.77823 -137.22079 32364 ft 495 kts 297°
2026-05-06 09:37 44.81572 -137.30216 32360 ft 496 kts 297°
2026-05-06 09:37 44.85327 -137.38387 32364 ft 497 kts 297°
2026-05-06 09:38 44.89085 -137.46587 32370 ft 499 kts 297°
2026-05-06 09:38 44.92846 -137.54819 32373 ft 499 kts 297°
2026-05-06 09:39 44.96606 -137.63069 32369 ft 500 kts 297°
2026-05-06 09:39 45.00360 -137.71332 32368 ft 500 kts 297°
2026-05-06 09:40 45.04106 -137.79601 32372 ft 499 kts 297°
2026-05-06 09:40 45.09704 -137.92004 32370 ft 499 kts 296°
2026-05-06 09:41 45.13429 -138.00286 32381 ft 499 kts 296°
2026-05-06 09:41 45.16524 -138.07187 32378 ft 499 kts 296°
2026-05-06 09:42 45.20242 -138.15501 32378 ft 499 kts 296°
2026-05-06 09:42 45.23951 -138.23817 32374 ft 499 kts 296°
2026-05-06 09:43 45.27660 -138.32158 32374 ft 500 kts 296°
2026-05-06 09:43 45.31366 -138.40516 32381 ft 500 kts 296°
2026-05-06 09:44 45.35067 -138.48888 32377 ft 500 kts 296°
2026-05-06 09:44 45.38763 -138.57274 32405 ft 501 kts 296°
2026-05-06 09:45 45.42458 -138.65683 32388 ft 501 kts 296°
2026-05-06 09:45 45.46145 -138.74098 32382 ft 501 kts 296°
2026-05-06 09:46 45.49831 -138.82534 32387 ft 501 kts 295°
2026-05-06 09:46 45.53510 -138.90983 32390 ft 502 kts 295°
2026-05-06 09:47 45.57183 -138.99441 32385 ft 501 kts 295°
2026-05-06 09:47 45.60847 -139.07902 32387 ft 501 kts 295°
2026-05-06 09:48 45.64476 -139.16310 32409 ft 500 kts 295°
2026-05-06 09:48 45.68123 -139.24787 32392 ft 500 kts 295°
2026-05-06 09:49 45.71758 -139.33261 32386 ft 500 kts 295°
2026-05-06 09:49 45.75390 -139.41751 32386 ft 500 kts 295°
2026-05-06 09:50 45.79016 -139.50257 32397 ft 500 kts 295°
2026-05-06 09:50 45.82638 -139.58778 32391 ft 500 kts 295°
2026-05-06 09:51 45.86250 -139.67301 32388 ft 500 kts 295°
2026-05-06 09:51 45.89858 -139.75841 32410 ft 500 kts 295°
2026-05-06 09:52 45.93460 -139.84394 32401 ft 500 kts 295°
2026-05-06 09:52 45.97052 -139.92949 32385 ft 500 kts 295°
2026-05-06 09:53 46.00664 -140.01471 32383 ft 501 kts 297°
2026-05-06 09:53 46.04580 -140.09787 32395 ft 502 kts 299°
2026-05-06 09:54 46.08568 -140.18051 32391 ft 502 kts 299°
2026-05-06 09:54 46.12508 -140.26279 32387 ft 502 kts 298°
2026-05-06 09:55 46.16443 -140.34583 32411 ft 501 kts 298°
2026-05-06 09:55 46.20365 -140.42912 32395 ft 502 kts 298°
2026-05-06 09:56 46.24281 -140.51250 32390 ft 501 kts 298°
2026-05-06 09:56 46.28186 -140.59586 32387 ft 501 kts 298°
2026-05-06 09:57 46.32089 -140.67942 32388 ft 501 kts 298°
2026-05-06 09:57 46.35985 -140.76308 32387 ft 501 kts 298°
2026-05-06 09:58 46.39875 -140.84686 32392 ft 501 kts 298°
2026-05-06 09:58 46.43759 -140.93077 32414 ft 502 kts 298°
2026-05-06 09:59 46.47641 -141.01488 32396 ft 502 kts 298°
2026-05-06 09:59 46.51512 -141.09900 32380 ft 501 kts 298°
2026-05-06 10:00 46.55380 -141.18330 32381 ft 501 kts 298°
2026-05-06 10:00 46.59240 -141.26771 32394 ft 501 kts 298°
2026-05-06 10:01 46.63095 -141.35224 32387 ft 501 kts 298°
2026-05-06 10:01 46.66939 -141.43680 32389 ft 501 kts 298°
2026-05-06 10:02 46.70770 -141.52132 32411 ft 500 kts 298°
2026-05-06 10:02 46.74601 -141.60610 32393 ft 501 kts 298°
2026-05-06 10:03 46.78423 -141.69096 32384 ft 500 kts 298°
2026-05-06 10:03 46.82237 -141.77587 32382 ft 500 kts 298°
2026-05-06 10:04 46.86042 -141.86086 32388 ft 500 kts 298°
2026-05-06 10:04 46.89838 -141.94592 32381 ft 499 kts 298°
2026-05-06 10:05 46.93619 -142.03088 32384 ft 498 kts 298°
2026-05-06 10:05 46.97368 -142.11539 32401 ft 498 kts 298°
2026-05-06 10:06 47.01132 -142.20050 32382 ft 497 kts 298°
2026-05-06 10:06 47.04885 -142.28562 32376 ft 497 kts 298°
2026-05-06 10:07 47.08626 -142.37074 32378 ft 496 kts 298°
2026-05-06 10:07 47.12357 -142.45589 32386 ft 496 kts 298°
2026-05-06 10:08 47.16082 -142.54116 32375 ft 496 kts 298°
2026-05-06 10:08 47.19797 -142.62649 32376 ft 495 kts 298°
2026-05-06 10:09 47.23505 -142.71190 32376 ft 495 kts 298°
2026-05-06 10:09 47.27202 -142.79734 32379 ft 495 kts 298°
2026-05-06 10:10 47.30897 -142.88299 32374 ft 495 kts 298°
2026-05-06 10:10 47.34584 -142.96870 32375 ft 495 kts 298°
2026-05-06 10:11 47.38261 -143.05446 32385 ft 494 kts 298°
2026-05-06 10:11 47.41929 -143.14029 32355 ft 494 kts 298°
2026-05-06 10:12 47.45581 -143.22600 32374 ft 493 kts 298°
2026-05-06 10:12 47.49228 -143.31188 32377 ft 493 kts 298°
2026-05-06 10:13 47.52866 -143.39781 32370 ft 492 kts 298°
2026-05-06 10:13 47.56490 -143.48369 32366 ft 492 kts 298°
2026-05-06 10:14 47.60109 -143.56970 32362 ft 491 kts 298°
2026-05-06 10:14 47.63717 -143.65574 32359 ft 491 kts 298°
2026-05-06 10:15 47.67314 -143.74177 32359 ft 491 kts 298°
2026-05-06 10:15 47.70884 -143.82744 32360 ft 491 kts 297°
2026-05-06 10:16 47.74467 -143.91370 32361 ft 491 kts 297°
2026-05-06 10:16 47.78049 -144.00020 32391 ft 491 kts 297°
2026-05-06 10:17 47.81628 -144.08693 32361 ft 492 kts 298°
2026-05-06 10:17 47.85197 -144.17365 32355 ft 491 kts 298°
2026-05-06 10:18 47.88761 -144.26053 32356 ft 491 kts 298°
2026-05-06 10:18 47.92314 -144.34745 32371 ft 491 kts 297°
2026-05-06 10:19 47.95860 -144.43447 32355 ft 491 kts 297°
2026-05-06 10:19 47.99395 -144.52149 32349 ft 490 kts 297°
2026-05-06 10:20 48.02925 -144.60868 32351 ft 490 kts 297°
2026-05-06 10:20 48.06425 -144.69541 32359 ft 491 kts 297°
2026-05-06 10:21 48.09942 -144.78285 32345 ft 491 kts 297°
2026-05-06 10:21 48.13460 -144.87058 32345 ft 492 kts 297°
2026-05-06 10:22 48.16973 -144.95850 32342 ft 492 kts 297°
2026-05-06 10:22 48.20482 -145.04658 32340 ft 492 kts 297°
2026-05-06 10:23 48.23982 -145.13473 32342 ft 492 kts 297°
2026-05-06 10:23 48.27479 -145.22310 32334 ft 492 kts 297°
2026-05-06 10:24 48.30968 -145.31155 32349 ft 492 kts 297°
2026-05-06 10:24 48.34445 -145.40000 32338 ft 492 kts 296°
2026-05-06 10:25 48.37919 -145.48867 32336 ft 492 kts 296°
2026-05-06 10:25 48.41384 -145.57741 32332 ft 492 kts 296°
2026-05-06 10:26 48.44840 -145.66620 32348 ft 491 kts 296°
2026-05-06 10:26 48.48288 -145.75507 32333 ft 491 kts 296°
2026-05-06 10:27 48.51724 -145.84394 32328 ft 491 kts 296°
2026-05-06 10:27 48.55154 -145.93297 32330 ft 490 kts 296°
2026-05-06 10:28 48.58576 -146.02207 32344 ft 490 kts 296°
2026-05-06 10:28 48.61968 -146.11070 32325 ft 490 kts 296°
2026-05-06 10:29 48.65397 -146.20060 32319 ft 490 kts 296°
2026-05-06 10:29 48.68769 -146.28929 32318 ft 490 kts 295°
2026-05-06 10:30 48.72159 -146.37875 32333 ft 490 kts 295°
2026-05-06 10:30 48.75543 -146.46838 32315 ft 490 kts 295°
2026-05-06 10:31 48.78918 -146.55808 32314 ft 490 kts 295°
2026-05-06 10:31 48.81715 -146.63262 32316 ft 489 kts 295°
2026-05-06 10:32 48.85075 -146.72248 32335 ft 490 kts 295°
2026-05-06 10:32 48.88431 -146.81252 32314 ft 490 kts 295°
2026-05-06 10:33 48.91777 -146.90261 32305 ft 489 kts 295°
2026-05-06 10:33 48.95113 -146.99274 32302 ft 489 kts 295°
2026-05-06 10:34 48.98439 -147.08291 32303 ft 488 kts 294°
2026-05-06 10:34 49.01754 -147.17308 32300 ft 488 kts 294°
2026-05-06 10:35 49.05064 -147.26345 32299 ft 488 kts 294°
2026-05-06 10:35 49.08364 -147.35386 32299 ft 488 kts 294°
2026-05-06 10:36 49.11662 -147.44450 32307 ft 488 kts 294°
2026-05-06 10:36 49.14953 -147.53528 32303 ft 488 kts 294°
2026-05-06 10:37 49.18232 -147.62604 32292 ft 488 kts 294°
2026-05-06 10:37 49.21505 -147.71694 32287 ft 488 kts 294°
2026-05-06 10:38 49.24768 -147.80789 32289 ft 487 kts 294°
2026-05-06 10:38 49.28018 -147.89880 32283 ft 487 kts 294°
2026-05-06 10:39 49.31260 -147.98982 32279 ft 486 kts 294°
2026-05-06 10:39 49.34471 -148.08028 32301 ft 486 kts 294°
2026-05-06 10:40 49.37717 -148.17205 32289 ft 486 kts 294°
2026-05-06 10:40 49.40912 -148.26269 32280 ft 486 kts 293°
2026-05-06 10:41 49.44114 -148.35384 32277 ft 485 kts 293°
2026-05-06 10:41 49.47308 -148.44510 32274 ft 484 kts 293°
2026-05-06 10:42 49.50493 -148.53642 32285 ft 484 kts 293°
2026-05-06 10:42 49.53668 -148.62781 32271 ft 484 kts 293°
2026-05-06 10:43 49.56831 -148.71913 32266 ft 483 kts 293°
2026-05-06 10:44 49.61562 -148.85637 32296 ft 483 kts 293°
2026-05-06 10:44 49.64708 -148.94804 32268 ft 483 kts 293°
2026-05-06 10:45 49.67844 -149.03976 32260 ft 483 kts 293°
2026-05-06 10:45 49.70967 -149.13141 32261 ft 482 kts 293°
2026-05-06 10:46 49.74083 -149.22320 32275 ft 482 kts 292°
2026-05-06 10:46 49.77189 -149.31503 32258 ft 482 kts 292°
2026-05-06 10:47 49.80285 -149.40689 32254 ft 481 kts 292°
2026-05-06 10:47 49.83370 -149.49874 32250 ft 480 kts 292°
2026-05-06 10:48 49.86441 -149.59053 32255 ft 480 kts 292°
2026-05-06 10:48 49.89506 -149.68250 32253 ft 480 kts 292°
2026-05-06 10:49 49.92541 -149.77387 32241 ft 479 kts 292°
2026-05-06 10:49 49.95584 -149.86584 32248 ft 479 kts 292°
2026-05-06 10:50 49.98617 -149.95781 32244 ft 478 kts 292°
2026-05-06 10:50 50.01695 -150.04954 32252 ft 479 kts 294°
2026-05-06 10:51 50.04990 -150.13959 32234 ft 479 kts 295°
2026-05-06 10:51 50.08316 -150.22943 32237 ft 478 kts 295°
2026-05-06 10:52 50.11602 -150.31951 32237 ft 478 kts 295°
2026-05-06 10:52 50.14856 -150.40982 32241 ft 478 kts 295°
2026-05-06 10:53 50.18092 -150.50012 32227 ft 477 kts 295°
2026-05-06 10:53 50.21319 -150.59048 32228 ft 476 kts 295°
2026-05-06 10:54 50.24536 -150.68085 32228 ft 476 kts 295°
2026-05-06 10:54 50.27722 -150.77067 32228 ft 476 kts 295°
2026-05-06 10:55 50.30923 -150.86120 32223 ft 476 kts 295°
2026-05-06 10:55 50.34136 -150.95238 32223 ft 476 kts 295°
2026-05-06 10:56 50.37304 -151.04263 32223 ft 476 kts 295°
2026-05-06 10:56 50.40487 -151.13363 32236 ft 476 kts 295°
2026-05-06 10:57 50.43664 -151.22475 32225 ft 476 kts 295°
2026-05-06 10:57 50.46827 -151.31581 32220 ft 475 kts 295°
2026-05-06 10:58 50.49983 -151.40699 32214 ft 475 kts 295°
2026-05-06 10:58 50.53128 -151.49821 32228 ft 474 kts 295°
2026-05-06 10:59 50.56265 -151.58949 32209 ft 474 kts 295°
2026-05-06 10:59 50.59391 -151.68081 32210 ft 474 kts 295°
2026-05-06 11:00 50.62505 -151.77209 32208 ft 474 kts 294°
2026-05-06 11:00 50.65614 -151.86356 32229 ft 473 kts 294°
2026-05-06 11:01 50.68715 -151.95511 32210 ft 473 kts 294°
2026-05-06 11:01 50.71809 -152.04682 32207 ft 473 kts 294°
2026-05-06 11:02 50.74894 -152.13857 32207 ft 473 kts 294°
2026-05-06 11:02 50.77970 -152.23041 32202 ft 473 kts 294°
2026-05-06 11:03 50.81037 -152.32230 32208 ft 473 kts 294°
2026-05-06 11:03 50.84100 -152.41440 32200 ft 473 kts 294°
2026-05-06 11:04 50.87154 -152.50660 32198 ft 473 kts 294°
2026-05-06 11:04 50.90200 -152.59886 32197 ft 472 kts 294°
2026-05-06 11:05 50.93234 -152.69112 32209 ft 472 kts 294°
2026-05-06 11:05 50.96245 -152.78297 32183 ft 472 kts 294°
2026-05-06 11:06 50.99285 -152.87606 32192 ft 472 kts 294°
2026-05-06 11:06 51.02277 -152.96807 32193 ft 472 kts 293°
2026-05-06 11:07 51.05281 -153.06079 32200 ft 472 kts 293°
2026-05-06 11:07 51.08279 -153.15365 32187 ft 472 kts 293°
2026-05-06 11:08 51.11264 -153.24647 32190 ft 472 kts 293°
2026-05-06 11:08 51.14244 -153.33949 32184 ft 471 kts 293°
2026-05-06 11:09 51.17215 -153.43258 32207 ft 471 kts 293°
2026-05-06 11:09 51.20174 -153.52561 32192 ft 471 kts 293°
2026-05-06 11:10 51.23125 -153.61877 32178 ft 470 kts 292°
2026-05-06 11:10 51.26064 -153.71191 32180 ft 469 kts 292°
2026-05-06 11:11 51.28993 -153.80506 32175 ft 469 kts 292°
2026-05-06 11:11 51.31913 -153.89828 32186 ft 469 kts 292°
2026-05-06 11:12 51.34825 -153.99163 32171 ft 469 kts 292°
2026-05-06 11:12 51.37726 -154.08496 32173 ft 469 kts 292°
2026-05-06 11:13 51.40603 -154.17787 32175 ft 469 kts 292°
2026-05-06 11:13 51.43491 -154.27153 32183 ft 469 kts 292°
2026-05-06 11:14 51.46394 -154.36599 32172 ft 469 kts 292°
2026-05-06 11:14 51.49247 -154.45919 32170 ft 469 kts 292°
2026-05-06 11:15 51.52113 -154.55319 32173 ft 469 kts 292°
2026-05-06 11:15 51.54969 -154.64725 32164 ft 468 kts 292°
2026-05-06 11:16 51.57817 -154.74139 32160 ft 468 kts 292°
2026-05-06 11:16 51.60657 -154.83562 32159 ft 468 kts 291°
2026-05-06 11:17 51.63485 -154.92984 32158 ft 468 kts 291°
2026-05-06 11:17 51.66309 -155.02429 32159 ft 468 kts 291°
2026-05-06 11:18 51.69126 -155.11887 32167 ft 468 kts 291°
2026-05-06 11:18 51.71936 -155.21359 32161 ft 468 kts 291°
2026-05-06 11:19 51.74737 -155.30837 32164 ft 468 kts 291°
2026-05-06 11:19 51.77509 -155.40256 32155 ft 468 kts 291°
2026-05-06 11:20 51.79694 -155.47706 32174 ft 467 kts 291°
2026-05-06 11:24 51.81468 -155.53772 32147 ft 468 kts 291°
2026-05-06 11:25 51.84236 -155.63269 32152 ft 467 kts 291°
2026-05-06 11:25 51.86978 -155.72714 32152 ft 467 kts 291°
2026-05-06 11:26 51.89728 -155.82224 32153 ft 466 kts 291°
2026-05-06 11:26 51.92471 -155.91747 32167 ft 466 kts 291°
2026-05-06 11:27 51.95206 -156.01282 32152 ft 467 kts 291°
2026-05-06 11:27 51.97934 -156.10831 32144 ft 466 kts 291°
2026-05-06 11:28 52.00654 -156.20387 32144 ft 466 kts 291°
2026-05-06 11:28 52.03362 -156.29942 32142 ft 466 kts 290°
2026-05-06 11:29 52.06064 -156.39518 32148 ft 466 kts 290°
2026-05-06 11:29 52.08760 -156.49108 32140 ft 466 kts 290°
2026-05-06 11:30 52.11446 -156.58704 32137 ft 466 kts 290°
2026-05-06 11:30 52.14124 -156.68309 32138 ft 466 kts 290°
2026-05-06 11:31 52.16790 -156.77913 32148 ft 466 kts 290°
2026-05-06 11:31 52.19452 -156.87540 32139 ft 466 kts 290°
2026-05-06 11:32 52.22106 -156.97176 32148 ft 466 kts 290°
2026-05-06 11:32 52.24732 -157.06752 32139 ft 465 kts 290°
2026-05-06 11:33 52.27365 -157.16392 32134 ft 464 kts 290°
2026-05-06 11:33 52.29985 -157.26030 32135 ft 464 kts 290°
2026-05-06 11:34 52.32594 -157.35664 32133 ft 464 kts 290°
2026-05-06 11:34 52.35197 -157.45313 32134 ft 464 kts 290°
2026-05-06 11:35 52.37791 -157.54972 32133 ft 464 kts 290°
2026-05-06 11:35 52.40374 -157.64634 32137 ft 464 kts 290°
2026-05-06 11:36 52.42956 -157.74329 32128 ft 464 kts 290°
2026-05-06 11:36 52.45532 -157.84046 32128 ft 465 kts 290°
2026-05-06 11:37 52.48103 -157.93782 32131 ft 465 kts 290°
2026-05-06 11:37 52.50667 -158.03534 32122 ft 465 kts 290°
2026-05-06 11:38 52.53220 -158.13290 32129 ft 466 kts 290°
2026-05-06 11:38 52.55771 -158.23074 32125 ft 466 kts 290°
2026-05-06 11:39 52.58313 -158.32869 32126 ft 466 kts 290°
2026-05-06 11:39 52.60847 -158.42674 32128 ft 466 kts 290°
2026-05-06 11:40 52.63371 -158.52489 32133 ft 466 kts 290°
2026-05-06 11:40 52.65884 -158.62301 32117 ft 465 kts 290°
2026-05-06 11:41 52.68390 -158.72124 32125 ft 465 kts 290°
2026-05-06 11:41 52.70868 -158.81885 32129 ft 464 kts 290°
2026-05-06 11:42 52.73353 -158.91713 32122 ft 464 kts 290°
2026-05-06 11:42 52.75828 -159.01548 32120 ft 464 kts 290°
2026-05-06 11:43 52.78292 -159.11383 32122 ft 464 kts 290°
2026-05-06 11:43 52.80751 -159.21242 32122 ft 464 kts 290°
2026-05-06 11:44 52.84425 -159.36055 32127 ft 464 kts 290°
2026-05-06 11:44 52.86865 -159.45947 32129 ft 464 kts 290°
2026-05-06 11:45 52.89293 -159.55835 32118 ft 464 kts 290°
2026-05-06 11:45 52.91713 -159.65735 32123 ft 463 kts 290°
2026-05-06 11:46 52.94123 -159.75639 32130 ft 463 kts 290°
2026-05-06 11:46 52.96522 -159.85549 32136 ft 463 kts 290°
2026-05-06 11:47 52.98912 -159.95454 32130 ft 463 kts 290°
2026-05-06 11:47 53.01002 -160.05525 32135 ft 460 kts 284°
2026-05-06 11:48 53.02697 -160.15781 32132 ft 460 kts 283°
2026-05-06 11:48 53.04384 -160.26048 32129 ft 461 kts 283°
2026-05-06 11:49 53.06079 -160.36319 32134 ft 461 kts 284°
2026-05-06 11:49 53.07772 -160.46590 32130 ft 461 kts 284°
2026-05-06 11:50 53.09462 -160.56884 32134 ft 461 kts 283°
2026-05-06 11:50 53.11142 -160.67190 32133 ft 461 kts 283°
2026-05-06 11:51 53.12813 -160.77504 32133 ft 461 kts 283°
2026-05-06 11:51 53.14475 -160.87832 32134 ft 462 kts 284°
2026-05-06 11:52 53.16131 -160.98173 32139 ft 463 kts 284°
2026-05-06 11:52 53.17781 -161.08550 32136 ft 463 kts 283°
2026-05-06 11:53 53.19413 -161.18875 32140 ft 464 kts 283°
2026-05-06 11:53 53.21047 -161.29284 32144 ft 464 kts 284°
2026-05-06 11:54 53.22676 -161.39726 32137 ft 467 kts 284°
2026-05-06 11:54 53.24307 -161.50241 32142 ft 469 kts 284°
2026-05-06 11:55 53.25937 -161.60816 32140 ft 471 kts 284°
2026-05-06 11:55 53.27559 -161.71412 32145 ft 472 kts 284°
2026-05-06 11:56 53.29174 -161.82041 32137 ft 472 kts 284°
2026-05-06 11:56 53.30784 -161.92701 32148 ft 473 kts 284°
2026-05-06 11:57 53.32387 -162.03379 32147 ft 473 kts 284°
2026-05-06 11:57 53.33978 -162.14054 32146 ft 472 kts 284°
2026-05-06 11:58 53.35555 -162.24707 32136 ft 472 kts 284°
2026-05-06 11:58 53.37124 -162.35383 32134 ft 473 kts 285°
2026-05-06 11:59 53.38689 -162.46091 32146 ft 474 kts 285°
2026-05-06 11:59 53.40247 -162.56834 32142 ft 475 kts 284°
2026-05-06 12:00 53.41789 -162.67539 32144 ft 476 kts 284°
2026-05-06 12:00 53.43343 -162.78405 32136 ft 476 kts 285°
2026-05-06 12:01 53.44865 -162.89127 32144 ft 476 kts 285°
2026-05-06 12:01 53.46390 -162.99939 32148 ft 476 kts 284°
2026-05-06 12:02 53.47905 -163.10757 32146 ft 476 kts 284°
2026-05-06 12:02 53.49408 -163.21569 32143 ft 476 kts 284°
2026-05-06 12:03 53.50903 -163.32400 32141 ft 476 kts 285°
2026-05-06 12:03 53.52390 -163.43251 32152 ft 477 kts 285°
2026-05-06 12:04 53.53870 -163.54130 32146 ft 478 kts 285°
2026-05-06 12:04 53.55342 -163.65032 32148 ft 478 kts 284°
2026-05-06 12:05 53.56803 -163.75939 32155 ft 479 kts 284°
2026-05-06 12:05 53.58257 -163.86870 32155 ft 479 kts 284°
2026-05-06 12:06 53.59701 -163.97808 32151 ft 479 kts 284°
2026-05-06 12:06 53.61134 -164.08751 32149 ft 478 kts 284°
2026-05-06 12:07 53.62557 -164.19697 32150 ft 478 kts 284°
2026-05-06 12:07 53.63970 -164.30650 32152 ft 478 kts 284°
2026-05-06 12:08 53.65373 -164.41608 32154 ft 479 kts 284°
2026-05-06 12:08 53.66770 -164.52605 32156 ft 480 kts 284°
2026-05-06 12:09 53.68158 -164.63623 32156 ft 480 kts 284°
2026-05-06 12:09 53.69528 -164.74584 32144 ft 481 kts 284°
2026-05-06 12:10 53.70898 -164.85634 32158 ft 481 kts 285°
2026-05-06 12:10 53.72038 -164.94893 32159 ft 481 kts 285°
2026-05-06 12:11 53.73392 -165.05973 32161 ft 482 kts 284°
2026-05-06 12:11 53.74734 -165.17054 32164 ft 482 kts 284°
2026-05-06 12:12 53.76068 -165.28158 32152 ft 482 kts 285°
2026-05-06 12:12 53.77384 -165.39197 32167 ft 482 kts 285°
2026-05-06 12:13 53.78699 -165.50323 32170 ft 483 kts 284°
2026-05-06 12:13 53.80003 -165.61453 32169 ft 483 kts 284°
2026-05-06 12:14 53.81299 -165.72607 32171 ft 483 kts 284°
2026-05-06 12:14 53.82584 -165.83767 32165 ft 483 kts 284°
2026-05-06 12:15 53.83858 -165.94930 32180 ft 483 kts 284°
2026-05-06 12:15 53.85122 -166.06100 32196 ft 483 kts 284°
2026-05-06 12:16 53.86376 -166.17280 32204 ft 483 kts 284°
2026-05-06 12:16 53.87618 -166.28452 32195 ft 483 kts 284°
2026-05-06 12:17 53.88849 -166.39631 32225 ft 482 kts 284°
2026-05-06 12:17 53.90071 -166.50813 32225 ft 483 kts 284°
2026-05-06 12:18 53.91303 -166.62013 32295 ft 485 kts 285°
2026-05-06 12:18 53.91937 -166.67625 32621 ft 483 kts 285°
2026-05-06 12:18 53.92568 -166.73194 33078 ft 480 kts 284°
2026-05-06 12:19 53.93191 -166.78728 33538 ft 475 kts 284°
2026-05-06 12:19 53.93804 -166.84212 34059 ft 471 kts 284°
2026-05-06 12:19 53.94413 -166.89674 34206 ft 473 kts 284°
2026-05-06 12:19 53.95023 -166.95176 34206 ft 474 kts 284°
2026-05-06 12:20 53.96224 -167.06122 34174 ft 469 kts 284°
2026-05-06 12:20 53.97404 -167.16989 34189 ft 467 kts 284°
2026-05-06 12:21 53.98572 -167.27831 34200 ft 466 kts 284°
2026-05-06 12:21 53.99729 -167.38667 34191 ft 466 kts 284°
2026-05-06 12:22 54.00874 -167.49492 34201 ft 466 kts 284°
2026-05-06 12:22 54.02012 -167.60348 34202 ft 467 kts 284°
2026-05-06 12:23 54.03135 -167.71160 34205 ft 468 kts 284°
2026-05-06 12:23 54.04257 -167.82066 34186 ft 468 kts 284°
2026-05-06 12:24 54.05365 -167.92943 34201 ft 466 kts 284°
2026-05-06 12:24 54.06461 -168.03796 34203 ft 464 kts 284°
2026-05-06 12:25 54.07543 -168.14613 34201 ft 463 kts 283°
2026-05-06 12:25 54.08612 -168.25406 34209 ft 462 kts 283°
2026-05-06 12:26 54.09670 -168.36180 34217 ft 460 kts 283°
2026-05-06 12:26 54.10710 -168.46893 34216 ft 458 kts 283°
2026-05-06 12:27 54.11739 -168.57578 34219 ft 456 kts 283°
2026-05-06 12:27 54.12755 -168.68232 34203 ft 455 kts 283°
2026-05-06 12:28 54.13760 -168.78874 34216 ft 454 kts 283°
2026-05-06 12:28 54.14756 -168.89521 34218 ft 455 kts 283°
2026-05-06 12:29 54.15742 -169.00174 34226 ft 455 kts 283°
2026-05-06 12:29 54.16722 -169.10863 34223 ft 456 kts 283°
2026-05-06 12:30 54.17693 -169.21574 34223 ft 457 kts 283°
2026-05-06 12:30 54.18656 -169.32301 34223 ft 457 kts 283°
2026-05-06 12:31 54.19606 -169.43009 34214 ft 455 kts 283°
2026-05-06 12:31 54.20541 -169.53661 34222 ft 452 kts 283°
2026-05-06 12:32 54.21457 -169.64186 34221 ft 450 kts 283°
2026-05-06 12:32 54.22365 -169.74736 34225 ft 448 kts 283°
2026-05-06 12:33 54.23262 -169.85264 34229 ft 447 kts 283°
2026-05-06 12:33 54.24147 -169.95764 34226 ft 446 kts 283°
2026-05-06 12:34 54.25021 -170.06247 34226 ft 445 kts 283°
2026-05-06 12:34 54.25884 -170.16709 34228 ft 444 kts 283°
2026-05-06 12:35 54.26736 -170.27159 34229 ft 443 kts 283°
2026-05-06 12:35 54.27579 -170.37608 34232 ft 443 kts 283°
2026-05-06 12:36 54.28411 -170.48036 34225 ft 442 kts 283°
2026-05-06 12:36 54.29231 -170.58444 34227 ft 440 kts 283°
2026-05-06 12:37 54.30041 -170.68825 34230 ft 439 kts 283°
2026-05-06 12:37 54.30840 -170.79190 34231 ft 439 kts 283°
2026-05-06 12:38 54.31630 -170.89547 34231 ft 438 kts 283°
2026-05-06 12:38 54.32409 -170.99886 34227 ft 438 kts 282°
2026-05-06 12:39 54.33178 -171.10225 34228 ft 437 kts 282°
2026-05-06 12:39 54.33939 -171.20561 34232 ft 437 kts 282°
2026-05-06 12:40 54.34690 -171.30903 34234 ft 437 kts 282°
2026-05-06 12:40 54.35429 -171.41185 34234 ft 438 kts 282°
2026-05-06 12:41 54.36168 -171.51598 34231 ft 437 kts 281°
2026-05-06 12:41 54.36887 -171.61881 34233 ft 437 kts 281°
2026-05-06 12:42 54.37603 -171.72234 34233 ft 437 kts 281°
2026-05-06 12:42 54.38310 -171.82591 34235 ft 437 kts 281°
2026-05-06 12:43 54.39009 -171.92956 34234 ft 437 kts 281°
2026-05-06 12:43 54.39703 -172.03383 34235 ft 437 kts 280°
2026-05-06 12:44 54.40378 -172.13672 34216 ft 436 kts 280°
2026-05-06 12:44 54.41047 -172.24006 34234 ft 436 kts 280°
2026-05-06 12:45 54.41708 -172.34346 34235 ft 435 kts 280°
2026-05-06 12:46 54.42681 -172.49851 34221 ft 435 kts 279°
2026-05-06 12:46 54.43318 -172.60167 34219 ft 434 kts 279°
2026-05-06 12:47 54.43946 -172.70483 34223 ft 434 kts 279°
2026-05-06 12:47 54.44564 -172.80791 34228 ft 433 kts 279°
2026-05-06 12:48 54.45172 -172.91088 34230 ft 433 kts 279°
2026-05-06 12:48 54.45773 -173.01399 34227 ft 434 kts 279°
2026-05-06 12:49 54.46365 -173.11703 34222 ft 433 kts 278°
2026-05-06 12:49 54.46947 -173.22016 34230 ft 433 kts 278°
2026-05-06 12:50 54.47521 -173.32334 34229 ft 434 kts 278°
2026-05-06 12:50 54.48086 -173.42651 34226 ft 434 kts 278°
2026-05-06 12:51 54.48643 -173.52984 34227 ft 434 kts 278°
2026-05-06 12:51 54.49188 -173.63250 34218 ft 434 kts 277°
2026-05-06 12:52 54.49726 -173.73581 34217 ft 433 kts 277°
2026-05-06 12:52 54.50255 -173.83896 34222 ft 433 kts 277°
2026-05-06 12:53 54.50776 -173.94224 34221 ft 433 kts 277°
2026-05-06 12:53 54.51288 -174.04543 34223 ft 433 kts 277°
2026-05-06 12:54 54.51791 -174.14874 34222 ft 433 kts 277°
2026-05-06 12:54 54.52285 -174.25195 34220 ft 433 kts 277°
2026-05-06 12:55 54.52770 -174.35534 34217 ft 433 kts 277°
2026-05-06 12:55 54.53247 -174.45877 34217 ft 433 kts 276°
2026-05-06 12:56 54.53715 -174.56214 34219 ft 433 kts 276°
2026-05-06 12:56 54.54098 -174.64808 34208 ft 433 kts 276°
2026-05-06 12:57 54.54625 -174.76904 34219 ft 433 kts 276°
2026-05-06 12:57 54.55066 -174.87257 34218 ft 433 kts 276°
2026-05-06 12:58 54.55427 -174.95858 34218 ft 433 kts 275°
2026-05-06 12:58 54.55852 -175.06221 34213 ft 434 kts 275°
2026-05-06 12:59 54.56336 -175.18274 34198 ft 434 kts 275°
2026-05-06 12:59 54.56677 -175.26950 34212 ft 433 kts 275°
2026-05-06 13:00 54.57076 -175.37310 34211 ft 433 kts 275°
2026-05-06 13:00 54.57466 -175.47667 34205 ft 433 kts 275°
2026-05-06 13:01 54.57846 -175.58011 34201 ft 433 kts 275°
2026-05-06 13:01 54.58216 -175.68296 34211 ft 433 kts 274°
2026-05-06 13:02 54.58582 -175.78727 34214 ft 434 kts 274°
2026-05-06 13:02 54.58938 -175.89160 34212 ft 437 kts 274°
2026-05-06 13:03 54.59285 -175.99583 34204 ft 440 kts 273°
2026-05-06 13:03 54.59628 -176.10143 34189 ft 441 kts 273°
2026-05-06 13:04 54.59962 -176.20713 34191 ft 442 kts 273°
2026-05-06 13:04 54.60289 -176.31359 34195 ft 441 kts 273°
2026-05-06 13:05 54.60601 -176.41845 34183 ft 441 kts 273°
2026-05-06 13:05 54.60907 -176.52401 34185 ft 440 kts 273°
2026-05-06 13:06 54.61203 -176.62947 34185 ft 440 kts 273°
2026-05-06 13:06 54.61490 -176.73472 34181 ft 439 kts 272°
2026-05-06 13:07 54.61767 -176.84004 34181 ft 439 kts 272°
2026-05-06 13:07 54.62035 -176.94539 34178 ft 440 kts 272°
2026-05-06 13:08 54.62294 -177.05076 34186 ft 440 kts 272°
2026-05-06 13:08 54.62545 -177.15639 34176 ft 441 kts 272°
2026-05-06 13:09 54.62786 -177.26211 34163 ft 441 kts 272°
2026-05-06 13:09 54.63019 -177.36785 34166 ft 442 kts 271°
2026-05-06 13:10 54.63243 -177.47415 34166 ft 444 kts 271°
2026-05-06 13:10 54.63458 -177.58084 34163 ft 445 kts 271°
2026-05-06 13:11 54.63665 -177.68772 34153 ft 446 kts 271°
2026-05-06 13:11 54.63862 -177.79494 34154 ft 447 kts 271°
2026-05-06 13:12 54.64049 -177.90147 34153 ft 447 kts 270°
2026-05-06 13:12 54.64229 -178.00926 34147 ft 446 kts 270°
2026-05-06 13:13 54.64399 -178.11632 34137 ft 446 kts 270°
2026-05-06 13:13 54.64419 -178.22249 34140 ft 445 kts 268°
2026-05-06 13:14 54.64315 -178.32910 34137 ft 444 kts 268°
2026-05-06 13:14 54.64208 -178.43567 34143 ft 445 kts 268°
2026-05-06 13:15 54.64109 -178.54255 34129 ft 445 kts 268°
2026-05-06 13:15 54.64009 -178.64962 34124 ft 446 kts 268°
2026-05-06 13:16 54.63903 -178.75670 34112 ft 447 kts 268°
2026-05-06 13:16 54.63787 -178.86400 34112 ft 447 kts 268°
2026-05-06 13:17 54.63660 -178.97139 34113 ft 448 kts 267°
2026-05-06 13:17 54.63524 -179.07885 34116 ft 449 kts 267°
2026-05-06 13:18 54.63377 -179.18657 34093 ft 449 kts 267°
2026-05-06 13:18 54.63221 -179.29445 34094 ft 449 kts 266°
2026-05-06 13:19 54.63056 -179.40218 34084 ft 449 kts 266°
2026-05-06 13:19 54.62881 -179.51002 34088 ft 449 kts 266°
2026-05-06 13:20 54.62696 -179.61784 34079 ft 449 kts 266°
2026-05-06 13:20 54.62504 -179.72487 34082 ft 449 kts 266°
2026-05-06 13:21 54.62300 -179.83251 34071 ft 449 kts 266°
2026-05-06 13:21 54.62087 -179.94016 34076 ft 449 kts 266°
2026-05-06 13:22 54.61865 179.95214 34066 ft 450 kts 265°
2026-05-06 13:22 54.61631 179.84408 34070 ft 452 kts 265°
2026-05-06 13:23 54.61386 179.73544 34073 ft 454 kts 265°
2026-05-06 13:23 54.61132 179.62654 34073 ft 455 kts 265°
2026-05-06 13:24 54.60867 179.51729 34048 ft 456 kts 265°
2026-05-06 13:24 54.60593 179.40808 34054 ft 457 kts 264°
2026-05-06 13:25 54.60307 179.29856 34048 ft 457 kts 264°
2026-05-06 13:25 54.60011 179.18897 34041 ft 457 kts 264°
2026-05-06 13:26 54.59706 179.07948 34032 ft 457 kts 264°
2026-05-06 13:26 54.59390 178.96986 34032 ft 457 kts 264°
2026-05-06 13:27 54.59065 178.86038 34026 ft 458 kts 264°
2026-05-06 13:27 54.58729 178.75050 34030 ft 459 kts 264°
2026-05-06 13:28 54.58382 178.64056 34014 ft 460 kts 264°
2026-05-06 13:28 54.58024 178.53034 34014 ft 461 kts 263°
2026-05-06 13:29 54.57657 178.42010 34003 ft 461 kts 263°
2026-05-06 13:29 54.57278 178.30969 34002 ft 463 kts 263°
2026-05-06 13:30 54.56890 178.19952 33997 ft 464 kts 263°
2026-05-06 13:30 54.56489 178.08828 33999 ft 465 kts 263°
2026-05-06 13:31 54.56077 177.97695 33980 ft 466 kts 263°
2026-05-06 13:31 54.55654 177.86549 33991 ft 466 kts 263°
2026-05-06 13:32 54.55220 177.75394 33988 ft 468 kts 262°
2026-05-06 13:32 54.54774 177.64187 33978 ft 470 kts 262°
2026-05-06 13:33 54.54316 177.52952 33969 ft 470 kts 262°
2026-05-06 13:33 54.53848 177.41716 33957 ft 471 kts 262°
2026-05-06 13:34 54.53368 177.30463 34004 ft 471 kts 262°
2026-05-06 13:34 54.52877 177.19178 33952 ft 473 kts 261°
2026-05-06 13:35 54.52374 177.07887 33952 ft 474 kts 261°
2026-05-06 13:35 54.51859 176.96566 33935 ft 475 kts 261°
2026-05-06 13:36 54.51334 176.85239 33932 ft 475 kts 261°
2026-05-06 13:36 54.50799 176.73921 33943 ft 476 kts 261°
2026-05-06 13:37 54.50249 176.62550 33922 ft 477 kts 261°
2026-05-06 13:37 54.49698 176.51355 33912 ft 478 kts 261°
2026-05-06 13:38 54.49125 176.39942 33912 ft 479 kts 261°
2026-05-06 13:38 54.48542 176.28526 33890 ft 479 kts 260°
2026-05-06 13:39 54.47950 176.17171 33896 ft 481 kts 260°
2026-05-06 13:39 54.47342 176.05710 33885 ft 482 kts 260°
2026-05-06 13:40 54.46722 175.94230 33885 ft 483 kts 260°
2026-05-06 13:40 54.46089 175.82719 33868 ft 484 kts 260°
2026-05-06 13:41 54.45446 175.71219 33904 ft 484 kts 259°
2026-05-06 13:41 54.44788 175.59663 33857 ft 486 kts 259°
2026-05-06 13:42 54.44119 175.48105 33838 ft 487 kts 259°
2026-05-06 13:42 54.43437 175.36505 33832 ft 488 kts 259°
2026-05-06 13:43 54.42743 175.24901 33816 ft 489 kts 259°
2026-05-06 13:43 54.42038 175.13304 33816 ft 488 kts 259°
2026-05-06 13:44 54.41322 175.01713 33803 ft 488 kts 259°
2026-05-06 13:44 54.40595 174.90129 33801 ft 488 kts 259°
2026-05-06 13:45 54.39858 174.78569 33799 ft 487 kts 259°
2026-05-06 13:45 54.38736 174.61312 33800 ft 488 kts 258°
2026-05-06 13:46 54.37969 174.49731 33793 ft 489 kts 258°
2026-05-06 13:46 54.37190 174.38135 33782 ft 490 kts 258°
2026-05-06 13:47 54.36398 174.26519 33766 ft 491 kts 258°
2026-05-06 13:47 54.35594 174.14877 33763 ft 491 kts 258°
2026-05-06 13:48 54.34918 174.05222 33766 ft 492 kts 258°
2026-05-06 13:48 54.34092 173.93595 33747 ft 492 kts 257°
2026-05-06 13:49 54.33254 173.81951 33734 ft 492 kts 257°
2026-05-06 13:49 54.32407 173.70324 33731 ft 492 kts 257°
2026-05-06 13:50 54.31549 173.58720 33756 ft 492 kts 257°
2026-05-06 13:50 54.30675 173.47080 33725 ft 493 kts 257°
2026-05-06 13:51 54.29789 173.35413 33702 ft 494 kts 257°
2026-05-06 13:51 54.28892 173.23743 33701 ft 495 kts 257°
2026-05-06 13:52 54.27981 173.12051 33677 ft 496 kts 257°
2026-05-06 13:52 54.27058 173.00353 33690 ft 496 kts 257°
2026-05-06 13:53 54.26084 172.88682 33668 ft 494 kts 253°
2026-05-06 13:53 54.24148 172.77573 33672 ft 483 kts 243°
2026-05-06 13:54 54.21227 172.67346 33651 ft 478 kts 237°
2026-05-06 13:54 54.18175 172.57370 33646 ft 478 kts 237°
2026-05-06 13:55 54.15111 172.47301 33636 ft 478 kts 237°
2026-05-06 13:55 54.12058 172.37236 33614 ft 477 kts 237°
2026-05-06 13:56 54.09006 172.27197 33606 ft 477 kts 237°
2026-05-06 13:56 54.05947 172.17177 33598 ft 476 kts 237°
2026-05-06 13:57 54.02885 172.07189 33645 ft 477 kts 237°
2026-05-06 13:57 53.99800 171.97186 33590 ft 478 kts 237°
2026-05-06 13:58 53.96703 171.87186 33580 ft 478 kts 237°
2026-05-06 13:58 53.93600 171.77198 33575 ft 478 kts 237°
2026-05-06 13:59 53.90495 171.67226 33560 ft 477 kts 237°
2026-05-06 13:59 53.87382 171.57291 33576 ft 477 kts 237°
2026-05-06 14:00 53.84263 171.47377 33554 ft 477 kts 237°
2026-05-06 14:00 53.81139 171.37470 33533 ft 477 kts 237°
2026-05-06 14:01 53.77999 171.27570 33536 ft 477 kts 237°
2026-05-06 14:01 53.74847 171.17689 33529 ft 478 kts 237°
2026-05-06 14:02 53.71689 171.07804 33547 ft 479 kts 237°
2026-05-06 14:02 53.68504 170.97903 33521 ft 480 kts 237°
2026-05-06 14:03 53.65324 170.88019 33519 ft 480 kts 237°
2026-05-06 14:03 53.62125 170.78137 33503 ft 480 kts 237°
2026-05-06 14:04 53.58929 170.68291 33501 ft 479 kts 237°
2026-05-06 14:04 53.55731 170.58484 33503 ft 480 kts 237°
2026-05-06 14:05 53.52530 170.48725 33502 ft 480 kts 237°
2026-05-06 14:05 53.49296 170.38892 33497 ft 481 kts 237°
2026-05-06 14:06 53.46053 170.29072 33495 ft 481 kts 237°
2026-05-06 14:06 53.42798 170.19253 33490 ft 482 kts 237°
2026-05-06 14:07 53.39531 170.09441 33476 ft 483 kts 237°
2026-05-06 14:07 53.36258 169.99643 33490 ft 482 kts 237°
2026-05-06 14:08 53.32977 169.89863 33489 ft 482 kts 237°
2026-05-06 14:08 53.29691 169.80108 33491 ft 481 kts 237°
2026-05-06 14:09 53.26406 169.70393 33510 ft 480 kts 237°
2026-05-06 14:09 53.23204 169.60616 33492 ft 480 kts 239°
2026-05-06 14:10 53.20094 169.50774 33487 ft 480 kts 239°
2026-05-06 14:10 53.16967 169.40942 33489 ft 479 kts 238°
2026-05-06 14:11 53.13821 169.31159 33486 ft 479 kts 238°
2026-05-06 14:11 53.10661 169.21395 33508 ft 480 kts 238°
2026-05-06 14:12 53.07483 169.11612 33488 ft 481 kts 238°
2026-05-06 14:12 53.04316 169.01897 33483 ft 481 kts 238°
2026-05-06 14:13 53.01118 168.92126 33484 ft 482 kts 238°
2026-05-06 14:13 52.97908 168.82356 33482 ft 482 kts 238°
2026-05-06 14:14 52.94689 168.72596 33488 ft 482 kts 239°
2026-05-06 14:14 52.91458 168.62846 33480 ft 482 kts 238°
2026-05-06 14:15 52.88221 168.53133 33478 ft 482 kts 238°
2026-05-06 14:15 52.84975 168.43438 33480 ft 481 kts 238°
2026-05-06 14:16 52.81725 168.33762 33495 ft 481 kts 238°
2026-05-06 14:16 52.78470 168.24112 33473 ft 481 kts 238°
2026-05-06 14:17 52.75215 168.14495 33475 ft 480 kts 238°
2026-05-06 14:17 52.71952 168.04894 33471 ft 479 kts 238°
2026-05-06 14:18 52.68683 167.95311 33469 ft 479 kts 238°
2026-05-06 14:18 52.65411 167.85756 33478 ft 479 kts 238°
2026-05-06 14:19 52.62150 167.76271 33468 ft 479 kts 238°
2026-05-06 14:19 52.58866 167.66755 33464 ft 477 kts 238°
2026-05-06 14:20 52.55587 167.57288 33461 ft 476 kts 238°
2026-05-06 14:20 52.52310 167.47865 33456 ft 475 kts 238°
2026-05-06 14:21 52.49030 167.38468 33472 ft 474 kts 238°
2026-05-06 14:21 52.45754 167.29116 33458 ft 473 kts 238°
2026-05-06 14:22 52.42479 167.19795 33447 ft 472 kts 238°
2026-05-06 14:22 52.39186 167.10473 33457 ft 473 kts 238°
2026-05-06 14:23 52.35880 167.01148 33461 ft 474 kts 238°
2026-05-06 14:23 52.32567 166.91820 33450 ft 475 kts 239°
2026-05-06 14:24 52.29228 166.82475 33445 ft 477 kts 238°
2026-05-06 14:24 52.25884 166.73138 33426 ft 477 kts 238°
2026-05-06 14:25 52.22544 166.63857 33429 ft 473 kts 238°
2026-05-06 14:25 52.19240 166.54694 33445 ft 470 kts 239°
2026-05-06 14:26 52.15929 166.45552 33447 ft 467 kts 239°
2026-05-06 14:26 52.12632 166.36477 33435 ft 467 kts 239°
2026-05-06 14:27 52.09307 166.27367 33445 ft 470 kts 239°
2026-05-06 14:27 52.05948 166.18199 33448 ft 474 kts 239°
2026-05-06 14:28 52.02563 166.08988 33457 ft 475 kts 239°
2026-05-06 14:28 51.99170 165.99786 33447 ft 475 kts 239°
2026-05-06 14:29 51.95772 165.90606 33441 ft 473 kts 239°
2026-05-06 14:29 51.92390 165.81503 33433 ft 470 kts 239°
2026-05-06 14:30 51.89017 165.72454 33432 ft 469 kts 239°
2026-05-06 14:30 51.85651 165.63458 33447 ft 466 kts 239°
2026-05-06 14:31 51.82293 165.54514 33442 ft 464 kts 239°
2026-05-06 14:31 51.78966 165.45684 33439 ft 463 kts 239°
2026-05-06 14:32 51.75600 165.36782 33452 ft 465 kts 239°
2026-05-06 14:32 51.72207 165.27843 33462 ft 469 kts 239°
2026-05-06 14:33 51.68800 165.18892 33456 ft 468 kts 239°
2026-05-06 14:33 51.65395 165.09982 33435 ft 467 kts 239°
2026-05-06 14:34 51.61995 165.01113 33451 ft 465 kts 239°
2026-05-06 14:34 51.58601 164.92292 33458 ft 463 kts 239°
2026-05-06 14:35 51.55217 164.83527 33463 ft 461 kts 239°
2026-05-06 14:35 51.51832 164.74790 33452 ft 460 kts 239°
2026-05-06 14:36 51.48448 164.66084 33451 ft 462 kts 239°
2026-05-06 14:36 51.45014 164.57277 33466 ft 468 kts 239°
2026-05-06 14:37 51.41545 164.48412 33476 ft 470 kts 239°
2026-05-06 14:37 51.38099 164.39639 33465 ft 461 kts 239°
2026-05-06 14:38 51.35277 164.32478 33465 ft 456 kts 239°
2026-05-06 14:38 51.31834 164.23758 33495 ft 463 kts 239°
2026-05-06 14:39 51.28390 164.15076 33476 ft 468 kts 239°
2026-05-06 14:39 51.24885 164.06260 33494 ft 472 kts 239°
2026-05-06 14:40 51.21344 163.97394 33483 ft 476 kts 239°
2026-05-06 14:40 51.17775 163.88491 33479 ft 476 kts 239°
2026-05-06 14:41 51.14221 163.79654 33499 ft 471 kts 239°
2026-05-06 14:41 51.10727 163.71004 33497 ft 464 kts 239°
2026-05-06 14:42 51.07270 163.62465 33484 ft 459 kts 239°
2026-05-06 14:42 51.03813 163.53956 33499 ft 458 kts 239°
2026-05-06 14:43 51.00321 163.45383 33525 ft 467 kts 239°
2026-05-06 14:43 50.96768 163.36688 33521 ft 469 kts 239°
2026-05-06 14:44 50.93260 163.28144 33500 ft 457 kts 239°
2026-05-06 14:45 50.88049 163.15500 33512 ft 458 kts 239°
2026-05-06 14:45 50.84547 163.07032 33525 ft 462 kts 239°
2026-05-06 14:46 50.81013 162.98506 33537 ft 464 kts 239°
2026-05-06 14:46 50.77480 162.90029 33510 ft 466 kts 239°
2026-05-06 14:47 50.73888 162.81431 33525 ft 467 kts 239°
2026-05-06 14:47 50.70332 162.72940 33550 ft 466 kts 239°
2026-05-06 14:48 50.66749 162.64420 33543 ft 465 kts 239°
2026-05-06 14:48 50.63165 162.55927 33542 ft 465 kts 239°
2026-05-06 14:49 50.59582 162.47459 33548 ft 464 kts 239°
2026-05-06 14:49 50.55997 162.39013 33563 ft 464 kts 239°
2026-05-06 14:50 50.52406 162.30582 33560 ft 464 kts 238°
2026-05-06 14:50 50.48807 162.22159 33570 ft 464 kts 238°
2026-05-06 14:51 50.45201 162.13745 33569 ft 464 kts 238°
2026-05-06 14:51 50.41588 162.05348 33569 ft 464 kts 239°
2026-05-06 14:52 50.37978 161.96979 33570 ft 463 kts 239°
2026-05-06 14:52 50.34368 161.88637 33578 ft 462 kts 239°
2026-05-06 14:53 50.30754 161.80313 33585 ft 462 kts 239°